sat.trackr.live / text

‹ back to catalog

HYPERFIELD-1A

NORAD 60562 · 2024-149CY

PAYLOAD ACTIVE UNKNOWN

§ Identity

Operator
Country
FIN
Launch date
2024-08-16
Launch site
AFWTR
Launch vehicle
Mass (kg)
RCS (m²)

External: N2YO · Heavens-Above · Gunter

§ Orbital elements

Epoch: 2026-05-24T22:41:54.926304Z

Period
94.07 min
Inclination
97.3798°
Eccentricity
0.0006059
Mean motion
15.30700008 rev/d
Perigee alt
469.6 km
Apogee alt
477.9 km
Semi-major
6,851.9 km
B*
2.0425e-4
RAAN
225.2305°
Arg perigee
47.5693°
Mean anomaly
312.6060°
Rev number
9,848

§ Raw data

HYPERFIELD-1A1 60562U 24149CY  26144.94577461  .00005987  00000+0  20425-3 0  99932 60562  97.3798 225.2305 0006059  47.5693 312.6060 15.30700008 98488

JSON: /api/v1/satellites/60562 · /tle

For live sub-satellite position, see the globe view (requires WebGL).

§ Visibility from observer

Set your observer location to see the next 7 days of passes ≥ 10°. The values pass through the URL so the page stays shareable.

No JS? Fill the form by hand. The geolocation button needs JavaScript.